User: anonymous   Login
Location: Unspecified
(0.0000°N, 0.0000°E)
Time: 03:57:04
(UTC+00:00)
Language:

ISS - Orbit

View from above orbital plane
View from above orbital plane
View from above satellite
View from above satellite

Ground track
Ground track

The orbit data is extracted from the following two-line orbital elements,

1 25544U 98067A   17051.64719411  .00016717  00000-0  10270-3 0  9048
2 25544  51.6376 259.2585 0006720 214.2762 145.7958 15.54395363  3629
Epoch (UTC): 20 February 2017 15:31:57
Eccentricity: 0.0006720
inclination: 51.6376°
perigee height: 399 km
apogee height: 408 km
right ascension of ascending node: 259.2585°
argument of perigee: 214.2762°
revolutions per day: 15.54395363
mean anomaly at epoch: 145.7958°
orbit number at epoch: 362

The dashed part of the orbit path shows where the satellite is in the earth's shadow,  

DLR